Location: Oberkirch
(48.5323°N, 8.0787°E)
Time: 07:21:19
(UTC+00:00)

RS-44 - Visible Passes

Search period start: 11 March 2026 00:00
Search period end: 21 March 2026 00:00
Orbit: 1174 x 1511 km, 82.5° (Epoch: 10 March)

Date Brightness Start Highest point End Pass type
(mag) Time Alt. Az. Time Alt. Az. Time Alt. Az.
11 Mar ? 01:36:55 10° N 01:44:46 49° ENE 01:49:35 26° SE visible
11 Mar ? 03:30:35 10° NNW 03:38:10 44° W 03:42:04 28° SW visible
11 Mar ? 18:13:44 10° WNW 18:16:41 12° NW 18:19:41 10° NNW visible
12 Mar ? 00:08:22 10° NNE 00:13:41 18° NE 00:19:12 10° E visible
12 Mar ? 02:00:33 10° N 02:08:44 70° ENE 02:12:08 41° SSE visible
12 Mar ? 03:54:47 10° NNW 04:01:35 30° W 04:04:39 24° WSW visible
13 Mar ? 00:31:27 10° N 00:38:09 26° ENE 00:42:26 18° E visible
13 Mar ? 02:24:17 10° N 02:32:33 83° W 02:34:59 53° S visible
13 Mar ? 04:19:19 10° NW 04:24:51 20° WNW 04:27:30 17° W visible
14 Mar ? 00:54:51 10° N 01:02:24 38° ENE 01:05:26 30° ESE visible
14 Mar ? 02:48:10 10° NNW 02:56:13 59° W 02:57:59 50° SW visible
14 Mar ? 04:44:48 10° NW 04:47:56 13° WNW 04:50:31 11° W visible
14 Mar ? 23:26:54 10° NNE 23:30:54 14° NE 23:35:00 10° ENE visible
15 Mar ? 01:18:24 10° N 01:26:30 54° ENE 01:28:33 46° ESE visible
15 Mar ? 03:12:13 10° NNW 03:19:45 40° W 03:21:06 38° WSW visible
15 Mar ? 17:56:09 10° WNW 17:58:30 11° NW 18:00:53 10° NNW visible
15 Mar ? 23:49:38 10° N 23:55:32 21° ENE 23:59:11 16° E visible
16 Mar ? 01:42:04 10° N 01:50:25 77° E 01:51:45 66° SE visible
16 Mar ? 03:36:28 10° NNW 03:43:08 28° W 03:44:18 27° W visible
17 Mar ? 00:12:52 10° N 00:19:57 30° ENE 00:22:27 26° E visible
17 Mar ? 02:05:52 10° NNW 02:14:12 76° W 02:15:01 71° SW visible
17 Mar ? 04:01:09 10° NW 04:06:21 18° WNW 04:07:34 18° W visible
17 Mar ? 22:46:32 10° NNE 22:48:00 10° NE 22:49:28 10° NE visible
18 Mar ? 00:36:19 10° N 00:44:11 42° ENE 00:45:46 39° E visible
18 Mar ? 02:29:47 10° NNW 02:37:51 53° W 02:38:20 53° W visible
18 Mar ? 04:27:12 10° NW 04:29:23 11° WNW 04:30:54 11° W visible
18 Mar ? 23:08:02 10° NNE 23:12:48 16° NE 23:16:33 12° E visible
19 Mar ? 00:59:55 10° N 01:08:14 60° ENE 01:09:07 58° E visible
19 Mar ? 02:53:52 10° NNW 03:01:21 37° W 03:01:41 37° W visible
19 Mar ? 23:30:59 10° N 23:37:23 23° ENE 23:39:56 20° E visible
20 Mar ? 01:23:38 10° N 01:32:08 84° E 01:32:31 81° SE visible
20 Mar ? 03:18:12 10° NNW 03:24:41 25° W 03:25:05 25° W visible
